Temperature
16 16 16 15 15 15 16 16 16 16 16 16 16 15 15 15 15 15 15 15 15 15 15 15 15 15 15 15 15 15 15 15 15 15 15 15 15 15 15 15 15 15 15
16 15 15 15 15 16 16 16 15 15 15 15 15 15 15 15 15 15 15 15 15 15 15 15 15 15 15 15 15 15 15 15 15 15 15 15 15 15 14 14 14 14 14
16 15 15 15 15 15 15 15 15 15 15 15 15 15 15 15 15 15 15 15 15 15 15 15 15 15 15 15 15 15 15 15 15 15 14 14 14 14 14 14 14 14 14
15 15 15 15 15 15 15 15 15 15 15 15 15 15 15 15 15 15 15 15 15 15 15 15 15 15 15 14 14 14 14 14 14 14 14 14 14 14 14 14 14 14 14
15 15 15 15 15 15 15 15 15 15 15 15 15 15 15 15 15 14 14 14 14 14 14 15 15 15 15 14 14 14 14 14 14 14 14 14 14 14 14 14 13 13 13
15 15 15 15 15 15 15 15 15 15 15 15 15 15 15 15 15 14 14 14 14 14 14 14 14 14 14 14 14 14 14 14 14 14 14 14 14 14 13 13 13 13 13
15 15 15 15 15 15 15 15 15 15 15 15 15 15 15 15 15 14 14 14 14 14 14 14 14 14 14 14 14 14 14 13 13 13 13 13 13 13 13 13 13 13 13
15 15 15 15 15 15 15 15 15 14 14 15 15 15 14 14 14 14 14 14 14 14 14 14 14 14 14 14 14 14 13 13 13 13 13 13 13 13 13 13 13 13 12
15 15 15 15 15 15 14 14 14 14 14 14 15 15 15 14 14 14 14 14 14 14 14 13 13 13 13 13 13 13 13 13 13 13 13 13 13 13 13 13 13 12 12
15 15 15 15 15 15 15 14 14 14 14 14 15 15 15 15 14 14 14 14 14 14 14 13 13 13 13 13 13 13 13 13 13 13 13 13 13 13 12 12 12 12 12
15 15 15 15 15 15 15 15 14 14 14 14 14 15 15 15 15 14 14 14 14 14 14 13 13 13 13 13 13 13 13 13 13 13 13 12 12 12 12 12 12 12 12
15 15 15 15 15 15 15 15 15 15 15 15 14 14 14 14 14 14 14 14 14 14 13 13 13 13 13 13 13 13 13 13 13 12 12 12 12 12 12 12 11 11 11
15 15 15 15 15 15 15 15 15 15 15 15 15 14 14 14 14 14 14 14 14 13 13 13 13 13 13 13 13 13 12 12 12 12 12 12 12 12 12 12 11 11 11
15 15 15 15 15 15 15 15 15 15 15 15 14 14 14 14 14 14 14 14 14 13 13 13 13 13 12 12 12 12 12 12 12 12 12 12 12 12 11 11 11 11 11
15 15 15 15 15 15 15 15 14 15 14 14 14 14 14 14 14 14 14 14 14 13 13 13 13 12 12 12 12 12 12 12 12 12 12 12 11 11 11 11 11 11 10
15 15 15 15 15 15 15 15 15 15 14 14 14 14 14 14 14 14 14 14 14 14 13 13 13 13 12 12 12 12 12 12 12 11 11 11 11 11 11 11 11 10 10
15 15 15 15 15 15 15 15 14 14 14 14 14 14 14 14 14 14 13 13 13 13 13 13 13 12 12 12 12 12 12 12 11 11 11 11 11 11 10 10 10 10 10
15 15 15 15 15 15 15 15 14 14 14 14 14 14 14 14 13 13 13 13 13 13 13 12 12 12 12 12 12 12 12 11 11 11 11 11 11 10 10 10 10 10 10
15 15 15 15 15 15 14 14 14 14 14 14 14 14 14 13 13 13 13 13 13 13 12 12 12 12 12 11 11 11 11 11 11 11 10 10 10 10 10 10 10 9 9
15 15 15 15 15 15 14 14 14 14 14 14 14 14 14 14 13 13 13 13 13 12 12 12 12 12 11 11 11 11 11 10 10 10 10 10 10 10 10 10 9 9 9
15 15 15 15 15 14 14 14 14 14 14 14 13 13 13 13 13 13 13 13 13 12 12 12 12 11 11 11 11 11 10 10 10 10 10 10 10 10 9 9 9 9 8
15 15 15 15 14 14 14 14 14 14 13 13 13 13 13 13 13 13 13 13 12 12 12 12 11 11 11 11 11 10 10 10 9 9 9 9 9 9 9 9 8 8 8
15 14 14 14 14 14 14 14 13 13 13 13 13 13 13 13 13 12 12 12 12 12 12 11 11 11 11 11 11 10 10 10 9 9 9 9 9 8 8 8 8 8 8
14 14 14 14 14 14 13 13 13 13 13 13 13 13 12 12 12 12 12 12 12 12 11 11 11 11 10 10 10 10 10 9 9 9 9 8 8 8 8 8 8 8 7
14 14 14 13 13 13 13 13 13 13 13 13 12 12 12 12 12 12 12 12 12 11 11 11 11 10 10 10 10 10 9 9 9 8 8 8 8 8 8 8 7 7 7
13 13 13 13 13 13 13 13 13 12 12 12 12 12 12 12 12 12 12 11 11 11 11 11 10 10 10 10 9 9 9 9 8 8 8 8 7 7 7 7 7 7 7
Wind_Speed
3 3 3 3 3 4 3 3 5 6 6 7 8 8 7 9 10 11 10 13 13 12 13 13 13 13 13 13 13 13 13 13 12 12 12 12 12 11 11 11 11 11 11
4 3 3 3 4 4 5 5 5 5 5 5 6 7 7 8 9 11 11 12 13 13 13 13 14 13 13 13 13 14 13 13 13 13 12 11 11 11 12 12 11 11 11
5 4 3 3 3 5 6 6 6 5 5 5 6 6 7 7 8 9 9 10 11 12 13 13 14 14 14 13 13 14 14 13 13 13 13 13 13 13 13 13 12 12 12
8 5 3 3 4 5 5 4 4 4 5 4 5 4 5 5 6 7 7 8 9 10 11 12 13 13 13 13 13 13 13 12 13 13 13 13 13 13 14 13 13 12 12
7 5 3 3 6 5 4 4 5 4 4 4 4 4 4 4 4 6 6 8 9 10 10 10 11 12 12 12 12 12 12 12 12 12 12 12 13 13 13 13 13 13 13
7 5 4 6 6 4 4 4 4 4 3 3 4 5 3 3 4 4 5 6 8 10 9 9 9 9 10 11 11 12 12 11 11 11 11 11 12 12 12 12 12 12 12
6 6 5 5 4 4 3 4 4 4 2 2 3 3 2 3 4 3 3 4 6 7 9 9 9 9 9 10 11 11 11 10 10 9 9 10 11 11 11 12 12 12 13
5 5 4 4 4 3 4 4 4 2 1 2 1 1 1 2 3 3 2 3 4 5 5 8 9 9 10 9 10 11 10 10 9 9 9 9 10 10 11 11 11 11 12
5 4 4 4 4 3 3 3 2 2 1 1 2 2 2 1 1 2 2 3 3 3 3 6 8 9 10 10 9 9 9 9 9 9 8 9 9 9 10 10 10 10 11
4 4 3 3 4 3 3 2 2 1 1 1 1 2 1 2 2 1 2 2 3 4 4 5 6 8 10 11 10 10 10 10 9 9 9 9 8 8 8 9 9 10 10
3 3 3 3 3 3 3 3 2 2 1 1 1 1 2 2 1 2 1 1 2 2 3 5 5 7 9 10 9 9 9 9 9 9 9 9 8 7 8 8 8 9 9
2 2 3 2 2 3 3 3 3 2 2 2 1 1 1 1 1 1 2 1 1 1 3 4 4 5 7 8 8 8 8 8 8 8 8 8 8 7 7 7 8 8 8
2 2 2 2 2 3 3 3 2 2 2 2 2 1 1 1 0 1 2 1 1 1 2 2 3 5 6 8 7 8 7 7 7 7 7 7 7 7 7 6 7 7 7
3 3 2 2 3 3 3 2 1 2 1 2 2 2 1 1 1 1 1 2 1 1 2 2 2 4 6 8 7 8 7 6 6 6 6 6 6 6 7 7 6 6 7
2 3 3 2 3 3 2 2 1 2 2 2 2 2 2 1 1 1 1 2 3 2 1 1 1 2 5 7 7 7 7 7 6 6 5 5 6 5 6 6 7 6 6
3 2 2 2 3 3 2 2 1 2 3 2 2 2 2 1 2 2 2 2 1 2 1 1 1 2 4 5 6 6 7 8 6 5 4 4 4 4 5 5 5 6 6
3 3 3 2 3 3 3 3 1 1 1 2 2 3 3 3 2 2 2 2 2 2 3 2 3 3 4 4 4 5 5 6 5 5 4 3 3 3 4 4 4 4 5
2 2 3 3 3 3 2 4 2 1 1 2 2 3 3 3 3 2 2 2 2 2 3 3 2 2 2 3 3 3 3 4 5 4 4 3 3 2 3 3 3 4 4
3 2 2 3 3 2 2 3 3 2 2 2 3 3 3 3 2 2 2 2 1 2 2 3 2 1 1 2 2 2 2 2 3 3 3 3 2 2 2 2 2 2 3
2 2 3 3 3 2 2 2 2 2 2 2 3 3 4 4 3 2 2 2 2 2 2 2 2 1 1 1 2 1 1 0 1 1 2 3 2 1 1 1 1 1 1
2 2 3 3 2 2 2 3 2 2 2 2 3 4 5 6 6 4 3 2 3 2 1 2 1 1 1 1 1 0 0 0 0 1 1 2 3 2 2 2 2 2 2
2 2 3 3 3 3 5 4 3 1 1 2 2 3 4 5 6 5 5 4 4 3 1 1 1 1 1 1 1 1 1 0 1 1 1 1 2 1 3 4 4 4 3
2 2 2 3 3 3 5 4 3 1 0 1 2 2 2 4 5 3 3 2 1 1 3 3 1 1 1 1 1 1 1 1 2 2 1 1 1 1 2 3 4 4 5
2 1 2 2 3 3 5 4 2 0 1 1 2 2 2 3 3 3 2 2 1 1 3 3 2 1 1 1 2 2 2 1 1 0 2 1 2 2 2 2 4 4 4
2 2 2 2 3 3 4 4 3 1 1 1 1 2 3 3 3 3 2 1 1 1 2 4 4 2 2 1 2 2 1 1 1 2 0 1 1 2 1 1 4 5 5
2 2 2 2 3 3 5 5 4 1 1 1 1 2 4 4 4 3 2 1 0 0 1 1 1 1 1 1 0 2 2 1 1 2 1 1 1 1 2 2 2 3 4
Wind_Direction
73 75 85 85 85 80 65 57 64 57 56 53 59 69 77 83 89 90 84 83 82 81 80 79 77 75 75 78 79 78 74 72 71 71 71 71 70 67 66 63 61 59 56
78 75 77 73 68 62 62 68 72 70 65 60 57 58 65 76 87 96 95 88 83 80 79 77 74 73 75 79 80 79 75 72 72 72 71 70 69 67 64 62 59 58 55
81 74 66 73 71 64 64 65 67 72 75 71 65 59 58 62 75 86 94 101 95 84 80 78 75 73 75 78 79 79 76 73 72 72 70 69 67 65 62 59 57 57 54
78 72 59 73 80 72 69 71 63 63 69 67 68 62 61 54 69 86 90 96 103 99 89 85 82 78 75 75 76 77 77 75 74 74 72 70 67 65 62 60 59 58 54
80 82 67 69 75 67 59 71 68 62 72 67 80 74 64 56 49 71 76 86 94 106 106 97 91 84 78 77 75 74 76 76 76 76 73 71 69 67 64 60 59 58 55
75 78 81 72 74 67 60 70 81 70 72 65 71 77 75 78 62 58 65 72 82 95 101 102 97 87 80 79 76 73 73 72 75 75 75 73 71 68 65 62 60 58 57
82 80 74 72 75 75 70 69 74 75 64 67 66 62 48 71 79 75 74 77 75 82 93 97 98 98 88 80 75 73 70 68 71 75 74 73 71 68 66 62 60 59 57
83 99 105 100 94 86 73 67 70 67 47 50 68 79 67 39 24 58 85 94 88 78 77 91 98 97 95 91 77 70 66 65 67 74 75 73 71 68 64 59 59 59 56
81 92 106 112 116 112 107 99 82 81 55 13 49 67 80 81 16 24 63 87 89 81 73 77 85 92 93 93 81 70 66 62 63 71 73 73 71 67 61 59 58 57 55
92 88 103 117 116 112 107 107 95 75 69 15 355 22 84 121 113 59 14 56 82 84 80 79 74 82 88 93 86 79 73 67 64 65 68 70 70 66 61 58 59 57 54
104 109 95 92 105 117 113 107 99 77 62 53 29 17 32 37 72 127 115 48 54 65 83 87 83 82 91 96 92 86 84 75 66 63 63 66 65 62 59 57 58 56 54
98 98 96 94 102 109 114 124 132 120 88 68 58 46 55 52 18 93 130 128 108 93 89 90 92 93 93 94 96 93 95 86 74 69 63 60 58 55 54 57 55 52 50
131 130 107 103 93 96 99 100 125 127 126 120 94 55 50 60 63 81 107 113 105 117 95 94 108 113 112 109 108 106 104 95 86 78 69 63 58 53 51 50 47 45 47
132 128 118 116 108 97 97 100 94 110 105 108 104 104 84 44 45 74 116 114 98 87 90 95 99 112 118 122 127 123 113 109 100 91 81 69 63 57 49 45 41 37 42
117 124 140 138 124 110 97 94 83 105 82 79 82 88 91 74 40 42 64 116 132 128 108 116 99 130 123 126 131 133 124 118 112 102 91 77 65 63 57 50 45 43 41
123 134 137 136 129 127 123 105 86 101 113 110 103 87 67 59 46 50 53 46 66 130 132 124 113 125 115 115 123 130 129 123 123 118 106 91 76 67 60 53 48 44 41
144 161 147 128 123 125 130 120 120 119 123 135 128 113 93 71 67 54 46 45 42 78 111 88 87 105 98 104 109 117 121 127 127 128 119 106 93 77 67 59 50 43 41
158 156 146 139 129 122 131 136 143 131 121 105 109 111 113 99 77 55 55 64 66 66 107 110 98 99 100 129 129 129 123 123 124 115 118 107 107 94 77 66 57 48 41
152 150 142 144 137 135 135 138 144 141 122 120 112 115 116 114 112 87 80 76 78 79 87 117 122 110 102 110 108 104 105 114 121 118 131 122 111 116 91 72 58 43 34
163 166 145 136 134 135 125 119 116 102 105 100 101 102 101 105 107 97 87 69 81 82 80 105 113 115 114 101 94 95 57 100 97 119 136 155 155 166 182 115 46 12 10
147 137 128 121 111 111 103 100 100 107 127 124 113 109 113 112 102 99 96 81 80 83 95 108 112 102 103 104 147 179 143 256 241 119 129 173 159 170 209 224 247 282 289
97 87 102 113 115 105 101 92 80 78 131 137 133 127 131 126 119 118 115 111 116 123 130 121 140 161 209 196 183 160 168 147 285 251 135 255 151 180 206 202 221 233 247
101 92 98 107 115 110 118 116 108 45 330 145 136 131 132 128 130 129 131 133 121 156 163 156 159 210 186 203 164 188 225 229 232 223 123 272 275 243 231 219 239 236 237
122 135 141 136 123 122 126 121 115 113 344 152 150 140 134 123 121 120 146 164 190 193 185 175 172 188 109 140 173 194 210 251 307 20 114 236 277 263 250 222 244 237 241
143 161 158 138 133 135 139 134 131 161 201 208 123 105 123 123 115 111 121 148 161 247 161 153 160 150 121 74 83 90 78 91 288 279 287 163 269 281 261 232 248 248 246
160 162 173 178 165 153 156 149 150 155 195 175 135 105 94 113 117 119 133 134 173 279 78 98 129 179 171 166 101 146 160 168 255 273 267 148 282 331 301 272 231 239 248
Height
1535 1535 1535 1535 1536 1536 1537 1537 1537 1537 1538 1538 1538 1539 1539 1539 1539 1539 1539 1540 1540 1540 1541 1541 1541 1541 1541 1541 1541 1541 1542 1542 1542 1542 1542 1542 1542 1542 1542 1541 1541 1541 1541
1536 1536 1536 1537 1537 1537 1538 1538 1538 1539 1539 1539 1540 1540 1540 1541 1541 1540 1540 1541 1541 1541 1542 1541 1542 1542 1541 1542 1542 1542 1543 1543 1543 1543 1543 1543 1542 1542 1542 1542 1542 1541 1541
1537 1537 1537 1538 1538 1539 1539 1539 1540 1540 1540 1541 1541 1542 1542 1542 1542 1542 1542 1542 1542 1542 1543 1543 1543 1543 1542 1543 1544 1544 1544 1544 1544 1544 1544 1544 1543 1543 1543 1543 1542 1542 1541
1538 1538 1539 1539 1539 1540 1540 1540 1541 1541 1542 1542 1542 1543 1543 1543 1544 1544 1544 1543 1543 1544 1544 1544 1545 1545 1545 1545 1545 1545 1545 1545 1545 1545 1545 1545 1544 1544 1544 1543 1543 1542 1542
1539 1539 1540 1540 1540 1541 1541 1541 1542 1542 1543 1543 1544 1544 1545 1545 1545 1546 1546 1545 1545 1545 1545 1546 1546 1547 1547 1547 1547 1547 1546 1546 1546 1546 1546 1546 1545 1545 1544 1544 1543 1543 1542
1540 1541 1541 1541 1541 1542 1542 1543 1543 1544 1544 1545 1545 1546 1546 1546 1547 1547 1547 1547 1547 1547 1547 1547 1547 1548 1548 1548 1548 1548 1547 1547 1547 1547 1547 1546 1546 1545 1545 1544 1544 1543 1543
1541 1541 1542 1542 1542 1543 1543 1544 1544 1545 1546 1546 1547 1547 1548 1548 1548 1548 1548 1548 1549 1549 1549 1549 1549 1549 1548 1548 1549 1548 1548 1548 1548 1547 1547 1547 1547 1546 1545 1545 1544 1544 1543
1542 1542 1543 1543 1543 1544 1544 1545 1545 1546 1547 1547 1548 1548 1549 1550 1549 1549 1550 1550 1550 1550 1550 1550 1550 1550 1549 1549 1549 1549 1549 1549 1548 1548 1548 1548 1547 1547 1546 1545 1545 1544 1543
1543 1543 1544 1544 1545 1545 1545 1546 1546 1547 1548 1549 1549 1549 1550 1550 1550 1551 1551 1551 1551 1551 1551 1551 1551 1551 1550 1550 1550 1550 1550 1549 1549 1548 1548 1548 1548 1547 1546 1546 1545 1544 1544
1544 1544 1545 1545 1546 1546 1546 1547 1547 1548 1548 1549 1549 1550 1550 1550 1551 1551 1552 1552 1552 1551 1552 1552 1552 1551 1551 1551 1550 1550 1550 1550 1549 1549 1549 1548 1548 1547 1547 1546 1545 1545 1544
1544 1545 1546 1546 1547 1547 1547 1547 1548 1548 1549 1549 1549 1550 1550 1550 1551 1551 1552 1552 1552 1552 1552 1552 1552 1552 1551 1551 1551 1551 1551 1550 1550 1550 1549 1549 1548 1548 1547 1546 1546 1545 1544
1545 1546 1546 1547 1547 1547 1548 1548 1548 1548 1549 1549 1549 1550 1550 1550 1550 1550 1551 1551 1552 1552 1552 1552 1552 1552 1551 1551 1551 1551 1551 1551 1550 1550 1549 1549 1548 1548 1547 1546 1545 1545 1544
1545 1546 1546 1547 1547 1548 1548 1548 1548 1549 1549 1549 1549 1550 1550 1550 1550 1550 1550 1551 1552 1552 1552 1552 1552 1552 1551 1551 1551 1551 1551 1551 1550 1550 1550 1549 1548 1548 1547 1546 1545 1544 1544
1545 1546 1546 1547 1547 1547 1548 1548 1548 1549 1549 1549 1549 1549 1549 1549 1549 1549 1550 1550 1551 1552 1552 1552 1552 1552 1552 1551 1551 1551 1551 1551 1550 1550 1550 1549 1548 1547 1546 1546 1545 1544 1543
1545 1545 1546 1546 1547 1547 1547 1548 1548 1548 1549 1549 1549 1549 1549 1549 1549 1549 1549 1550 1551 1551 1552 1552 1552 1552 1552 1552 1551 1551 1551 1551 1550 1550 1549 1549 1548 1547 1546 1545 1544 1543 1542
1544 1545 1545 1546 1546 1547 1547 1547 1547 1548 1548 1548 1548 1549 1549 1549 1549 1549 1549 1549 1550 1550 1551 1551 1551 1552 1552 1551 1551 1551 1551 1551 1550 1550 1549 1548 1547 1546 1545 1544 1543 1542 1541
1543 1544 1545 1545 1546 1546 1546 1547 1547 1547 1547 1548 1548 1548 1548 1548 1549 1549 1549 1549 1549 1550 1550 1551 1551 1551 1551 1551 1551 1551 1551 1550 1550 1549 1549 1548 1547 1546 1545 1544 1543 1542 1541
1542 1543 1544 1544 1545 1545 1546 1546 1546 1546 1547 1547 1547 1547 1548 1548 1548 1548 1549 1549 1549 1549 1549 1549 1550 1550 1550 1550 1550 1550 1550 1549 1549 1549 1548 1547 1546 1545 1544 1543 1542 1541 1540
1541 1542 1543 1543 1544 1544 1545 1545 1545 1546 1546 1546 1547 1547 1547 1547 1547 1548 1548 1548 1549 1549 1549 1549 1550 1550 1550 1550 1549 1549 1549 1549 1548 1548 1547 1547 1546 1545 1543 1542 1541 1540 1539
1540 1540 1541 1542 1542 1543 1544 1544 1544 1545 1545 1546 1546 1546 1546 1547 1547 1547 1548 1548 1548 1548 1548 1549 1549 1549 1549 1549 1549 1548 1548 1548 1547 1547 1546 1546 1545 1544 1542 1541 1540 1539 1537
1538 1539 1540 1540 1541 1542 1542 1542 1543 1543 1544 1545 1545 1545 1545 1545 1546 1546 1546 1547 1547 1547 1548 1548 1548 1548 1548 1547 1547 1547 1547 1546 1546 1546 1545 1544 1543 1542 1541 1540 1538 1537 1536
1536 1537 1538 1539 1539 1540 1541 1541 1542 1542 1542 1543 1543 1544 1544 1544 1544 1545 1545 1546 1546 1546 1546 1546 1546 1546 1546 1546 1546 1545 1545 1545 1544 1545 1543 1542 1541 1540 1539 1538 1537 1536 1534
1534 1535 1536 1537 1537 1538 1539 1539 1540 1540 1541 1541 1542 1542 1542 1543 1543 1544 1544 1544 1544 1545 1545 1545 1545 1545 1544 1544 1544 1543 1543 1542 1542 1542 1541 1540 1539 1537 1537 1536 1535 1534 1532
1532 1532 1534 1535 1535 1536 1537 1538 1538 1539 1539 1539 1540 1540 1541 1541 1542 1542 1542 1542 1543 1543 1543 1543 1543 1543 1543 1542 1542 1542 1541 1540 1540 1540 1539 1537 1536 1535 1534 1533 1532 1531 1530
1529 1530 1531 1532 1533 1534 1535 1535 1536 1537 1537 1538 1538 1539 1539 1539 1540 1540 1541 1540 1540 1541 1541 1541 1541 1540 1540 1540 1540 1539 1538 1537 1537 1537 1536 1535 1533 1532 1531 1530 1529 1528 1527
1527 1528 1529 1530 1531 1532 1533 1534 1534 1535 1535 1536 1536 1537 1537 1538 1538 1538 1539 1538 1538 1538 1539 1538 1538 1538 1537 1537 1537 1536 1536 1535 1534 1533 1533 1532 1531 1530 1528 1527 1526 1525 1524